Regional Weather Roundup
Issued by NWS Northern Indiana

Home | Current Version | Previous Version | Graphics & Text | Print | Product List | Glossary On
Versions: 1 2 3 4 5 6 7 8 9 10 11 12 13 14 15 16 17 18 19 20 21 22 23 24 25 26 27 28 29 30 31 32 33 34 35 36 37 38 39 40 41 42 43 44 45 46 47 48 49 50
000
ASUS43 KIWX 241610
RWRIWX

KIWX WEATHER ROUNDUP
NATIONAL WEATHER SERVICE NORTHERN INDIANA
1100 AM EST TUE JAN 24 2017

NOTE: "FAIR" INDICATES FEW OR NO CLOUDS BELOW 12,000 FEET WITH NO
SIGNIFICANT WEATHER AND/OR OBSTRUCTIONS TO VISIBILITY.

* THESE STATIONS ARE NOT UNDER NWS QUALITY CONTROL. THEY ALSO MAY NOT
  REPORT WEATHER SUCH AS PRECIPITATION OR FOG.

INZ001>027-241700-
NORTHERN INDIANA

CITY           SKY/WX    TMP DP  RH WIND       PRES   REMARKS
GARY*          CLOUDY    39  32  75 NW7       29.90S
VALPARAISO     CLOUDY    39  34  82 NW8       29.89R
LAPORTE*       CLOUDY    36  33  90 NW8       29.89R
KNOX*          CLOUDY    37  21  52 NW7       29.89R
SOUTH BEND     CLOUDY    38  35  89 NW12      29.87F
ELKHART*       CLOUDY    39  34  81 NW14      29.86S
GOSHEN         CLOUDY    39  33  79 NW13      29.85F
ROCHESTER*     CLOUDY    41  34  75 NW7       29.88R
WARSAW*        CLOUDY    37  32  81 NW7       29.86S
FORT WAYNE     PTSUNNY   41  34  76 NW10      29.85R
PERU/GRISSOM   CLOUDY    39  36  87 NW10      29.86F
MARION*        CLOUDY    37  34  87 NW6       29.89R FOG

$$
INZ028>050-241700-
CENTRAL INDIANA

CITY           SKY/WX    TMP DP  RH WIND       PRES   REMARKS
LAFAYETTE      CLOUDY    39  34  82 N5        29.90S
MUNCIE*        CLOUDY    41  35  79 NW10      29.87R
INDIANAPOLIS   CLOUDY    40  32  73 N7        29.89S

$$
MIZ043>046-050>051-056>058-064>065-071>073-077>080-241700-
SOUTHWEST LOWER MICHIGAN

CITY           SKY/WX    TMP DP  RH WIND       PRES   REMARKS
BATTLE CREEK   CLOUDY    38  36  92 W12       29.84R
BENTON HARBOR  CLOUDY    39  35  86 W8        29.87F
COLDWATER*     CLOUDY    39  37  93 W12       29.84R
HILLSDALE*       N/A     36  36 100 W13       29.80R
HOLLAND        CLOUDY    39  36  89 W7        29.86S
GRAND RAPIDS   CLOUDY    38  34  85 NW13      29.84R
KALAMAZOO      DRIZZLE   39  33  79 NW12      29.85R
STURGIS*       CLOUDY    38  35  87 N8        29.84S
THREE RIVERS*  CLOUDY    39  34  81 NW10      29.85F

$$
OHZ001>008-015>018-024>025-241700-
NORTHWEST OHIO

CITY           SKY/WX    TMP DP  RH WIND       PRES   REMARKS
DEFIANCE       CLOUDY    39  36  89 NW15      29.83R
FINDLAY        CLOUDY    42  38  85 W14       29.79R FOG
TOLEDO EXPRESS CLOUDY    40  40 100 W8        29.81R
TOLEDO METCALF CLOUDY    41  39  93 NW13      29.81R
LIMA           CLOUDY    40  39  97 W12       29.82R

$$
AND FOR LAKE MICHIGAN COASTAL AND OPEN LAKE BUOY OBSERVATIONS

STATION/POSITION TEMP    WIND        PRES    VSBY  WAVE
                 AIR SEA DIR/SP/G                  HT/PER
                 (F)     (DEG/KT/KT) (MB)    (MI)  (FT/S)
CALUMET HARBOR    37     280/  2/  4 1011.9R
BURNS HARBOR      35     330/  5/  7 1012.9

$$
&&



USA.gov is the U.S. government's official web portal to all federal, state and local government web resources and services.